Time,TemperatureF,DewpointF,PressureIn,WindDirection,WindDirectionDegrees,WindSpeedMPH,WindSpeedGustMPH,Humidity,HourlyPrecipIn,Conditions,Clouds,dailyrainin,SoftwareType,DateUTC
2013-04-30 00:02:00,51.1,40.9,30.24,SE,138,0.0,0.0,68,0.00,,---,0.00,VWS V14.01,2013-04-30 04:02:00,
2013-04-30 00:04:00,51.1,40.9,30.24,SE,138,0.0,0.0,68,0.00,,---,0.00,VWS V14.01,2013-04-30 04:04:00,
2013-04-30 00:06:00,51.1,40.9,30.24,SE,138,0.0,0.0,68,0.00,,---,0.00,VWS V14.01,2013-04-30 04:06:00,
2013-04-30 00:12:00,51.0,41.2,30.23,SE,138,0.0,0.0,69,0.00,,---,0.00,VWS V14.01,2013-04-30 04:12:00,
2013-04-30 00:17:00,51.0,41.2,30.23,SE,138,0.0,0.0,69,0.00,,---,0.00,VWS V14.01,2013-04-30 04:17:00,
2013-04-30 00:23:00,50.8,41.0,30.24,SE,138,0.0,0.0,69,0.00,,---,0.00,VWS V14.01,2013-04-30 04:23:00,
2013-04-30 00:28:00,50.8,41.4,30.23,SE,138,0.0,0.0,70,0.00,,---,0.00,VWS V14.01,2013-04-30 04:28:00,
2013-04-30 00:33:00,50.7,41.3,30.23,SE,138,0.0,0.0,70,0.00,,---,0.00,VWS V14.01,2013-04-30 04:33:00,
2013-04-30 00:38:00,50.7,41.3,30.23,SE,138,0.0,0.0,70,0.00,,---,0.00,VWS V14.01,2013-04-30 04:38:00,
2013-04-30 00:43:00,50.7,41.3,30.23,SE,138,0.0,0.0,70,0.00,,---,0.00,VWS V14.01,2013-04-30 04:43:00,
2013-04-30 00:48:00,50.5,41.1,30.23,SE,138,0.0,0.0,70,0.00,,---,0.00,VWS V14.01,2013-04-30 04:48:00,
2013-04-30 00:54:00,50.5,41.5,30.23,SE,138,0.0,0.0,71,0.00,,---,0.00,VWS V14.01,2013-04-30 04:54:00,
2013-04-30 00:59:00,50.5,41.5,30.23,SE,138,0.0,0.0,71,0.00,,---,0.00,VWS V14.01,2013-04-30 04:59:00,
2013-04-30 01:04:00,50.4,41.4,30.23,SE,138,0.0,0.0,71,0.00,,---,0.00,VWS V14.01,2013-04-30 05:04:00,
2013-04-30 01:09:00,50.4,41.4,30.23,SE,138,0.0,0.0,71,0.00,,---,0.00,VWS V14.01,2013-04-30 05:09:00,
2013-04-30 01:14:00,50.4,41.4,30.23,SE,138,0.0,0.0,71,0.00,,---,0.00,VWS V14.01,2013-04-30 05:14:00,
2013-04-30 01:19:00,50.2,41.5,30.23,SE,138,0.0,0.0,72,0.00,,---,0.00,VWS V14.01,2013-04-30 05:19:00,
2013-04-30 01:24:00,50.2,41.5,30.23,SE,138,0.0,0.0,72,0.00,,---,0.00,VWS V14.01,2013-04-30 05:24:00,
2013-04-30 01:30:00,50.2,41.2,30.23,SE,138,0.0,0.0,71,0.00,,---,0.00,VWS V14.01,2013-04-30 05:30:00,
2013-04-30 01:35:00,50.2,41.5,30.23,SE,138,0.0,0.0,72,0.00,,---,0.00,VWS V14.01,2013-04-30 05:35:00,
2013-04-30 01:40:00,50.1,41.4,30.23,SE,138,0.0,0.0,72,0.00,,---,0.00,VWS V14.01,2013-04-30 05:40:00,
2013-04-30 01:45:00,50.1,41.4,30.23,SE,138,0.0,0.0,72,0.00,,---,0.00,VWS V14.01,2013-04-30 05:45:00,
2013-04-30 01:50:00,50.1,41.4,30.23,SE,138,0.0,0.0,72,0.00,,---,0.00,VWS V14.01,2013-04-30 05:50:00,
2013-04-30 01:55:00,50.1,41.4,30.22,SE,138,0.0,0.0,72,0.00,,---,0.00,VWS V14.01,2013-04-30 05:55:00,
2013-04-30 02:01:00,50.1,41.4,30.23,SE,138,0.0,0.0,72,0.00,,---,0.00,VWS V14.01,2013-04-30 06:01:00,
2013-04-30 02:06:00,49.9,41.2,30.23,SE,138,0.0,0.0,72,0.00,,---,0.00,VWS V14.01,2013-04-30 06:06:00,
2013-04-30 02:11:00,49.9,41.6,30.23,SE,138,0.0,0.0,73,0.00,,---,0.00,VWS V14.01,2013-04-30 06:11:00,
2013-04-30 02:17:00,49.8,41.5,30.23,SE,138,0.0,0.0,73,0.00,,---,0.00,VWS V14.01,2013-04-30 06:17:00,
2013-04-30 02:22:00,49.8,41.5,30.23,SE,138,0.0,0.0,73,0.00,,---,0.00,VWS V14.01,2013-04-30 06:22:00,
2013-04-30 02:27:00,49.8,41.5,30.23,SE,128,0.0,0.0,73,0.00,,---,0.00,VWS V14.01,2013-04-30 06:27:00,
2013-04-30 02:32:00,49.8,41.9,30.23,SE,128,0.0,0.0,74,0.00,,---,0.00,VWS V14.01,2013-04-30 06:32:00,
2013-04-30 02:37:00,49.6,41.3,30.22,SE,128,0.0,0.0,73,0.00,,---,0.00,VWS V14.01,2013-04-30 06:37:00,
2013-04-30 02:42:00,49.6,41.7,30.22,SE,128,0.0,0.0,74,0.00,,---,0.00,VWS V14.01,2013-04-30 06:42:00,
2013-04-30 02:48:00,49.6,41.7,30.22,SE,128,0.0,0.0,74,0.00,,---,0.00,VWS V14.01,2013-04-30 06:48:00,
2013-04-30 02:53:00,49.6,41.7,30.22,SE,128,0.0,0.0,74,0.00,,---,0.00,VWS V14.01,2013-04-30 06:53:00,
2013-04-30 02:58:00,49.5,41.6,30.22,SE,128,0.0,0.0,74,0.00,,---,0.00,VWS V14.01,2013-04-30 06:58:00,
2013-04-30 03:03:00,49.5,41.6,30.23,SE,128,0.0,0.0,74,0.00,,---,0.00,VWS V14.01,2013-04-30 07:03:00,
2013-04-30 03:08:00,49.5,41.6,30.23,SE,128,0.0,0.0,74,0.00,,---,0.00,VWS V14.01,2013-04-30 07:08:00,
2013-04-30 03:13:00,49.4,41.5,30.23,SE,128,0.0,0.0,74,0.00,,---,0.00,VWS V14.01,2013-04-30 07:13:00,
2013-04-30 03:18:00,49.4,41.5,30.23,SE,128,0.0,0.0,74,0.00,,---,0.00,VWS V14.01,2013-04-30 07:18:00,
2013-04-30 03:23:00,49.4,41.5,30.23,SE,128,0.0,0.0,74,0.00,,---,0.00,VWS V14.01,2013-04-30 07:23:00,
2013-04-30 03:28:00,49.4,41.5,30.23,SE,128,0.0,0.0,74,0.00,,---,0.00,VWS V14.01,2013-04-30 07:28:00,
2013-04-30 03:33:00,49.2,41.3,30.23,SE,128,0.0,0.0,74,0.00,,---,0.00,VWS V14.01,2013-04-30 07:33:00,
2013-04-30 03:38:00,49.2,41.3,30.23,SE,128,0.0,0.0,74,0.00,,---,0.00,VWS V14.01,2013-04-30 07:38:00,
2013-04-30 03:43:00,49.1,41.2,30.23,SE,128,0.0,0.0,74,0.00,,---,0.00,VWS V14.01,2013-04-30 07:43:00,
2013-04-30 03:48:00,48.9,41.0,30.23,SE,128,0.0,0.0,74,0.00,,---,0.00,VWS V14.01,2013-04-30 07:48:00,
2013-04-30 03:53:00,48.8,40.9,30.23,SE,128,0.0,0.0,74,0.00,,---,0.00,VWS V14.01,2013-04-30 07:53:00,
2013-04-30 03:58:00,48.5,40.6,30.23,SE,128,0.0,0.0,74,0.00,,---,0.00,VWS V14.01,2013-04-30 07:58:00,
2013-04-30 04:04:00,48.2,40.7,30.23,SE,128,0.0,0.0,75,0.00,,---,0.00,VWS V14.01,2013-04-30 08:04:00,
2013-04-30 04:09:00,48.0,40.5,30.23,SE,128,0.0,0.0,75,0.00,,---,0.00,VWS V14.01,2013-04-30 08:09:00,
2013-04-30 04:15:00,47.9,40.7,30.23,SE,128,0.0,0.0,76,0.00,,---,0.00,VWS V14.01,2013-04-30 08:15:00,
2013-04-30 04:20:00,47.6,40.4,30.23,SE,128,0.0,0.0,76,0.00,,---,0.00,VWS V14.01,2013-04-30 08:20:00,
2013-04-30 04:26:00,47.4,40.6,30.24,SE,128,0.0,0.0,77,0.00,,---,0.00,VWS V14.01,2013-04-30 08:26:00,
2013-04-30 04:31:00,47.1,40.3,30.24,SE,128,0.0,0.0,77,0.00,,---,0.00,VWS V14.01,2013-04-30 08:31:00,
2013-04-30 04:35:00,47.0,40.2,30.24,SE,128,0.0,0.0,77,0.00,,---,0.00,VWS V14.01,2013-04-30 08:35:00,
2013-04-30 04:40:00,46.8,40.0,30.24,SE,128,0.0,0.0,77,0.00,,---,0.00,VWS V14.01,2013-04-30 08:40:00,
2013-04-30 04:45:00,46.7,40.2,30.24,SE,128,0.0,0.0,78,0.00,,---,0.00,VWS V14.01,2013-04-30 08:45:00,
2013-04-30 04:50:00,46.5,40.0,30.24,SE,128,0.0,0.0,78,0.00,,---,0.00,VWS V14.01,2013-04-30 08:50:00,
2013-04-30 04:55:00,46.2,40.1,30.24,SE,128,0.0,0.0,79,0.00,,---,0.00,VWS V14.01,2013-04-30 08:55:00,
2013-04-30 05:00:00,46.1,40.0,30.24,SE,128,0.0,0.0,79,0.00,,---,0.00,VWS V14.01,2013-04-30 09:00:00,
2013-04-30 05:05:00,46.0,40.2,30.24,SE,128,0.0,0.0,80,0.00,,---,0.00,VWS V14.01,2013-04-30 09:05:00,
2013-04-30 05:10:00,45.7,39.9,30.24,SE,128,0.0,0.0,80,0.00,,---,0.00,VWS V14.01,2013-04-30 09:10:00,
2013-04-30 05:15:00,45.5,39.7,30.24,SE,128,0.0,0.0,80,0.00,,---,0.00,VWS V14.01,2013-04-30 09:15:00,
2013-04-30 05:20:00,45.4,39.6,30.24,SE,128,0.0,0.0,80,0.00,,---,0.00,VWS V14.01,2013-04-30 09:20:00,
2013-04-30 05:25:00,45.2,39.4,30.24,SE,128,0.0,0.0,80,0.00,,---,0.00,VWS V14.01,2013-04-30 09:25:00,
2013-04-30 05:31:00,45.1,39.6,30.24,SE,128,0.0,0.0,81,0.00,,---,0.00,VWS V14.01,2013-04-30 09:31:00,
2013-04-30 05:36:00,44.9,39.4,30.24,SE,128,0.0,0.0,81,0.00,,---,0.00,VWS V14.01,2013-04-30 09:36:00,
2013-04-30 05:41:00,44.8,39.7,30.25,SE,128,0.0,0.0,82,0.00,,---,0.00,VWS V14.01,2013-04-30 09:41:00,
2013-04-30 05:46:00,44.6,39.5,30.25,SE,128,0.0,0.0,82,0.00,,---,0.00,VWS V14.01,2013-04-30 09:46:00,
2013-04-30 05:51:00,44.5,39.4,30.25,SE,128,0.0,0.0,82,0.00,,---,0.00,VWS V14.01,2013-04-30 09:51:00,
2013-04-30 05:56:00,44.5,39.4,30.25,SE,128,0.0,0.0,82,0.00,,---,0.00,VWS V14.01,2013-04-30 09:56:00,
2013-04-30 06:01:00,44.5,39.7,30.25,SE,128,0.0,0.0,83,0.00,,---,0.00,VWS V14.01,2013-04-30 10:01:00,
2013-04-30 06:06:00,44.6,39.8,30.25,SE,128,0.0,0.0,83,0.00,,---,0.00,VWS V14.01,2013-04-30 10:06:00,
2013-04-30 06:11:00,44.5,39.7,30.25,SE,128,0.0,0.0,83,0.00,,---,0.00,VWS V14.01,2013-04-30 10:11:00,
2013-04-30 06:17:00,44.5,39.7,30.26,SE,128,0.0,0.0,83,0.00,,---,0.00,VWS V14.01,2013-04-30 10:17:00,
2013-04-30 06:22:00,44.5,39.7,30.26,SE,128,0.0,0.0,83,0.00,,---,0.00,VWS V14.01,2013-04-30 10:22:00,
2013-04-30 06:27:00,44.5,40.0,30.26,SE,128,0.0,0.0,84,0.00,,---,0.00,VWS V14.01,2013-04-30 10:27:00,
2013-04-30 06:32:00,44.6,40.1,30.26,SE,128,0.0,0.0,84,0.00,,---,0.00,VWS V14.01,2013-04-30 10:32:00,
2013-04-30 06:38:00,44.6,40.1,30.26,SE,128,0.0,0.0,84,0.00,,---,0.00,VWS V14.01,2013-04-30 10:38:00,
2013-04-30 06:43:00,44.8,40.3,30.26,SE,128,0.0,0.0,84,0.00,,---,0.00,VWS V14.01,2013-04-30 10:43:00,
2013-04-30 06:48:00,44.9,40.4,30.26,SE,128,0.0,0.0,84,0.00,,---,0.00,VWS V14.01,2013-04-30 10:48:00,
2013-04-30 06:53:00,45.2,40.7,30.26,SE,128,0.0,0.0,84,0.00,,---,0.00,VWS V14.01,2013-04-30 10:53:00,
2013-04-30 06:58:00,45.4,40.9,30.27,SE,128,0.0,0.0,84,0.00,,---,0.00,VWS V14.01,2013-04-30 10:58:00,
2013-04-30 07:03:00,45.7,41.2,30.27,SE,128,0.0,0.0,84,0.00,,---,0.00,VWS V14.01,2013-04-30 11:03:00,
2013-04-30 07:09:00,45.8,41.2,30.27,SE,128,0.0,0.0,84,0.00,,---,0.00,VWS V14.01,2013-04-30 11:09:00,
2013-04-30 07:14:00,46.1,41.5,30.28,SE,128,0.0,0.0,84,0.00,,---,0.00,VWS V14.01,2013-04-30 11:14:00,
2013-04-30 07:20:00,46.4,41.5,30.28,SE,128,0.0,0.0,83,0.00,,---,0.00,VWS V14.01,2013-04-30 11:20:00,
2013-04-30 07:25:00,46.7,41.5,30.28,SE,128,0.0,0.0,82,0.00,,---,0.00,VWS V14.01,2013-04-30 11:25:00,
2013-04-30 07:31:00,46.8,41.3,30.28,SE,128,0.0,0.0,81,0.00,,---,0.00,VWS V14.01,2013-04-30 11:31:00,
2013-04-30 07:36:00,47.1,41.6,30.28,SE,128,0.0,0.0,81,0.00,,---,0.00,VWS V14.01,2013-04-30 11:36:00,
2013-04-30 07:41:00,47.6,41.8,30.28,SE,128,0.0,0.0,80,0.00,,---,0.00,VWS V14.01,2013-04-30 11:41:00,
2013-04-30 07:47:00,48.0,41.8,30.29,SE,128,0.0,0.0,79,0.00,,---,0.00,VWS V14.01,2013-04-30 11:47:00,
2013-04-30 07:52:00,48.3,41.8,30.29,SE,128,0.0,0.0,78,0.00,,---,0.00,VWS V14.01,2013-04-30 11:52:00,
2013-04-30 07:57:00,48.6,41.4,30.28,SE,128,0.0,0.0,76,0.00,,---,0.00,VWS V14.01,2013-04-30 11:57:00,
2013-04-30 08:02:00,49.1,41.5,30.29,SE,128,0.0,0.0,75,0.00,,---,0.00,VWS V14.01,2013-04-30 12:02:00,
2013-04-30 08:07:00,49.4,41.1,30.29,SE,128,0.0,0.0,73,0.00,,---,0.00,VWS V14.01,2013-04-30 12:07:00,
2013-04-30 08:12:00,49.8,40.0,30.29,SE,128,0.0,0.0,69,0.00,,---,0.00,VWS V14.01,2013-04-30 12:12:00,
2013-04-30 08:17:00,50.2,39.3,30.29,SE,128,0.0,0.0,66,0.00,,---,0.00,VWS V14.01,2013-04-30 12:17:00,
2013-04-30 08:22:00,50.7,39.4,30.30,SE,128,0.0,0.0,65,0.00,,---,0.00,VWS V14.01,2013-04-30 12:22:00,
2013-04-30 08:27:00,51.3,38.3,30.30,SE,128,0.0,1.0,61,0.00,,---,0.00,VWS V14.01,2013-04-30 12:27:00,
2013-04-30 08:32:00,51.9,38.0,30.30,ESE,113,0.0,2.0,59,0.00,,---,0.00,VWS V14.01,2013-04-30 12:32:00,
2013-04-30 08:37:00,52.3,38.0,30.30,ESE,113,0.0,0.0,58,0.00,,---,0.00,VWS V14.01,2013-04-30 12:37:00,
2013-04-30 08:42:00,52.8,38.5,30.30,NNE,17,0.0,0.0,58,0.00,,---,0.00,VWS V14.01,2013-04-30 12:42:00,
2013-04-30 08:47:00,53.1,38.7,30.30,SE,126,0.0,1.0,58,0.00,,---,0.00,VWS V14.01,2013-04-30 12:47:00,
2013-04-30 08:52:00,53.3,38.0,30.30,NE,40,0.0,0.0,56,0.00,,---,0.00,VWS V14.01,2013-04-30 12:52:00,
2013-04-30 08:57:00,53.8,38.5,30.30,SSE,158,0.0,1.0,56,0.00,,---,0.00,VWS V14.01,2013-04-30 12:57:00,
2013-04-30 09:02:00,54.1,39.2,30.30,SE,142,0.0,0.0,57,0.00,,---,0.00,VWS V14.01,2013-04-30 13:02:00,
2013-04-30 09:07:00,54.2,38.9,30.30,SE,125,1.0,3.0,56,0.00,,---,0.00,VWS V14.01,2013-04-30 13:07:00,
2013-04-30 09:13:00,54.5,39.1,30.30,South,172,0.0,1.0,56,0.00,,---,0.00,VWS V14.01,2013-04-30 13:13:00,
2013-04-30 09:18:00,54.8,39.4,30.30,South,172,0.0,3.0,56,0.00,,---,0.00,VWS V14.01,2013-04-30 13:18:00,
2013-04-30 09:23:00,55.1,38.8,30.31,SSE,161,0.0,2.0,54,0.00,,---,0.00,VWS V14.01,2013-04-30 13:23:00,
2013-04-30 09:28:00,55.3,37.5,30.30,South,173,0.0,4.0,51,0.00,,---,0.00,VWS V14.01,2013-04-30 13:28:00,
2013-04-30 09:33:00,55.4,37.6,30.31,ESE,120,0.0,0.0,51,0.00,,---,0.00,VWS V14.01,2013-04-30 13:33:00,
2013-04-30 09:39:00,55.7,38.8,30.30,SSE,167,0.0,0.0,53,0.00,,---,0.00,VWS V14.01,2013-04-30 13:39:00,
2013-04-30 09:44:00,55.9,36.5,30.31,ESE,114,0.0,1.0,48,0.00,,---,0.00,VWS V14.01,2013-04-30 13:44:00,
2013-04-30 09:49:00,56.0,37.1,30.31,SE,125,0.0,0.0,49,0.00,,---,0.00,VWS V14.01,2013-04-30 13:49:00,
2013-04-30 09:54:00,56.3,37.9,30.31,SSE,161,0.0,0.0,50,0.00,,---,0.00,VWS V14.01,2013-04-30 13:54:00,
2013-04-30 09:59:00,56.9,36.3,30.31,SSE,166,0.0,2.0,46,0.00,,---,0.00,VWS V14.01,2013-04-30 13:59:00,
2013-04-30 10:04:00,57.2,34.3,30.31,SSE,153,1.0,1.0,42,0.00,,---,0.00,VWS V14.01,2013-04-30 14:04:00,
2013-04-30 10:09:00,57.8,36.0,30.31,North,10,0.0,1.0,44,0.00,,---,0.00,VWS V14.01,2013-04-30 14:09:00,
2013-04-30 10:14:00,58.1,35.7,30.31,SSE,157,0.0,2.0,43,0.00,,---,0.00,VWS V14.01,2013-04-30 14:14:00,
2013-04-30 10:19:00,58.4,34.8,30.31,SSE,155,0.0,1.0,41,0.00,,---,0.00,VWS V14.01,2013-04-30 14:19:00,
2013-04-30 10:24:00,58.9,32.7,30.31,SSW,200,0.0,2.0,37,0.00,,---,0.00,VWS V14.01,2013-04-30 14:24:00,
2013-04-30 10:29:00,59.3,33.7,30.31,South,176,0.0,3.0,38,0.00,,---,0.00,VWS V14.01,2013-04-30 14:29:00,
2013-04-30 10:35:00,59.9,34.9,30.31,East,82,0.0,2.0,39,0.00,,---,0.00,VWS V14.01,2013-04-30 14:35:00,
2013-04-30 10:41:00,60.4,34.0,30.31,SSE,168,0.0,5.0,37,0.00,,---,0.00,VWS V14.01,2013-04-30 14:41:00,
2013-04-30 10:46:00,60.4,36.0,30.31,SSE,163,0.0,1.0,40,0.00,,---,0.00,VWS V14.01,2013-04-30 14:46:00,
2013-04-30 10:51:00,60.7,35.6,30.31,NE,40,5.0,5.0,39,0.00,,---,0.00,VWS V14.01,2013-04-30 14:51:00,
2013-04-30 10:56:00,61.0,37.2,30.31,SSE,166,0.0,5.0,41,0.00,,---,0.00,VWS V14.01,2013-04-30 14:56:00,
2013-04-30 11:01:00,61.3,38.0,30.31,SSW,193,1.0,1.0,42,0.00,,---,0.00,VWS V14.01,2013-04-30 15:01:00,
2013-04-30 11:06:00,61.3,34.1,30.30,SE,144,0.0,7.0,36,0.00,,---,0.00,VWS V14.01,2013-04-30 15:06:00,
2013-04-30 11:11:00,61.5,32.9,30.30,SE,134,0.0,1.0,34,0.00,,---,0.00,VWS V14.01,2013-04-30 15:11:00,
2013-04-30 11:16:00,62.1,36.2,30.30,SE,134,0.0,0.0,38,0.00,,---,0.00,VWS V14.01,2013-04-30 15:16:00,
2013-04-30 11:21:00,62.6,36.0,30.30,SSW,193,1.0,1.0,37,0.00,,---,0.00,VWS V14.01,2013-04-30 15:21:00,
2013-04-30 11:26:00,62.9,34.8,30.30,ENE,73,0.0,1.0,35,0.00,,---,0.00,VWS V14.01,2013-04-30 15:26:00,
2013-04-30 11:31:00,63.2,35.1,30.30,SSW,209,0.0,0.0,35,0.00,,---,0.00,VWS V14.01,2013-04-30 15:31:00,
2013-04-30 11:36:00,63.4,29.8,30.30,South,176,1.0,5.0,28,0.00,,---,0.00,VWS V14.01,2013-04-30 15:36:00,
2013-04-30 11:41:00,63.1,32.0,30.30,SSE,156,3.0,4.0,31,0.00,,---,0.00,VWS V14.01,2013-04-30 15:41:00,
2013-04-30 11:46:00,63.5,33.1,30.30,SW,222,0.0,1.0,32,0.00,,---,0.00,VWS V14.01,2013-04-30 15:46:00,
2013-04-30 11:51:00,64.0,33.6,30.30,ESE,111,1.0,1.0,32,0.00,,---,0.00,VWS V14.01,2013-04-30 15:51:00,
2013-04-30 11:56:00,64.2,32.2,30.30,SSW,192,5.0,5.0,30,0.00,,---,0.00,VWS V14.01,2013-04-30 15:56:00,
2013-04-30 12:01:00,64.0,30.3,30.30,South,171,0.0,0.0,28,0.00,,---,0.00,VWS V14.01,2013-04-30 16:01:00,
2013-04-30 12:06:00,64.2,24.6,30.30,SSE,157,1.0,4.0,22,0.00,,---,0.00,VWS V14.01,2013-04-30 16:06:00,
2013-04-30 12:11:00,64.7,28.1,30.30,SE,146,0.0,3.0,25,0.00,,---,0.00,VWS V14.01,2013-04-30 16:11:00,
2013-04-30 12:16:00,65.0,24.1,30.30,South,171,5.0,8.0,21,0.00,,---,0.00,VWS V14.01,2013-04-30 16:16:00,
2013-04-30 12:21:00,64.8,29.1,30.30,South,179,3.0,5.0,26,0.00,,---,0.00,VWS V14.01,2013-04-30 16:21:00,
2013-04-30 12:26:00,64.8,24.0,30.30,ESE,107,0.0,4.0,21,0.00,,---,0.00,VWS V14.01,2013-04-30 16:26:00,
2013-04-30 12:31:00,64.8,25.1,30.30,South,183,0.0,0.0,22,0.00,,---,0.00,VWS V14.01,2013-04-30 16:31:00,
2013-04-30 12:36:00,65.2,25.4,30.30,SSE,159,2.0,3.0,22,0.00,,---,0.00,VWS V14.01,2013-04-30 16:36:00,
2013-04-30 12:41:00,65.5,23.4,30.30,SSE,150,4.0,4.0,20,0.00,,---,0.00,VWS V14.01,2013-04-30 16:41:00,
2013-04-30 12:46:00,65.8,22.4,30.30,SSE,159,1.0,6.0,19,0.00,,---,0.00,VWS V14.01,2013-04-30 16:46:00,
2013-04-30 12:51:00,65.6,22.3,30.30,SSE,153,0.0,0.0,19,0.00,,---,0.00,VWS V14.01,2013-04-30 16:51:00,
2013-04-30 12:56:00,66.1,25.1,30.30,NNE,13,0.0,1.0,21,0.00,,---,0.00,VWS V14.01,2013-04-30 16:56:00,
2013-04-30 13:01:00,66.3,22.8,30.29,SW,230,0.0,6.0,19,0.00,,---,0.00,VWS V14.01,2013-04-30 17:01:00,
2013-04-30 13:06:00,65.6,24.6,30.30,NNE,21,1.0,3.0,21,0.00,,---,0.00,VWS V14.01,2013-04-30 17:06:00,
2013-04-30 13:11:00,66.0,25.0,30.30,WSW,256,0.0,0.0,21,0.00,,---,0.00,VWS V14.01,2013-04-30 17:11:00,
2013-04-30 13:16:00,66.0,22.6,30.29,NNW,329,0.0,1.0,19,0.00,,---,0.00,VWS V14.01,2013-04-30 17:16:00,
2013-04-30 13:21:00,66.4,21.6,30.29,SE,140,0.0,2.0,18,0.00,,---,0.00,VWS V14.01,2013-04-30 17:21:00,
2013-04-30 13:26:00,66.9,22.0,30.29,SSW,198,1.0,5.0,18,0.00,,---,0.00,VWS V14.01,2013-04-30 17:26:00,
2013-04-30 13:32:00,67.1,22.2,30.29,South,188,4.0,4.0,18,0.00,,---,0.00,VWS V14.01,2013-04-30 17:32:00,
2013-04-30 13:38:00,67.1,23.5,30.29,NW,311,0.0,1.0,19,0.00,,---,0.00,VWS V14.01,2013-04-30 17:38:00,
2013-04-30 13:43:00,67.3,21.0,30.28,SSE,163,2.0,2.0,17,0.00,,---,0.00,VWS V14.01,2013-04-30 17:43:00,
2013-04-30 13:48:00,67.3,21.0,30.29,South,179,1.0,4.0,17,0.00,,---,0.00,VWS V14.01,2013-04-30 17:48:00,
2013-04-30 13:53:00,67.3,19.6,30.29,SSW,210,0.0,4.0,16,0.00,,---,0.00,VWS V14.01,2013-04-30 17:53:00,
2013-04-30 13:59:00,67.3,23.7,30.29,South,187,0.0,1.0,19,0.00,,---,0.00,VWS V14.01,2013-04-30 17:59:00,
2013-04-30 14:05:00,67.6,25.1,30.29,SSE,159,0.0,1.0,20,0.00,,---,0.00,VWS V14.01,2013-04-30 18:05:00,
2013-04-30 14:10:00,67.4,22.5,30.29,SSW,192,0.0,2.0,18,0.00,,---,0.00,VWS V14.01,2013-04-30 18:10:00,
2013-04-30 14:15:00,67.6,23.9,30.29,NNE,17,1.0,1.0,19,0.00,,---,0.00,VWS V14.01,2013-04-30 18:15:00,
2013-04-30 14:21:00,68.1,26.7,30.29,SE,128,0.0,1.0,21,0.00,,---,0.00,VWS V14.01,2013-04-30 18:21:00,
2013-04-30 14:26:00,68.3,25.7,30.29,South,172,5.0,5.0,20,0.00,,---,0.00,VWS V14.01,2013-04-30 18:26:00,
2013-04-30 14:31:00,67.8,24.1,30.29,ENE,76,5.0,9.0,19,0.00,,---,0.00,VWS V14.01,2013-04-30 18:31:00,
2013-04-30 14:36:00,67.1,27.0,30.29,South,170,0.0,5.0,22,0.00,,---,0.00,VWS V14.01,2013-04-30 18:36:00,
2013-04-30 14:42:00,66.8,24.5,30.29,WSW,251,0.0,1.0,20,0.00,,---,0.00,VWS V14.01,2013-04-30 18:42:00,
2013-04-30 14:48:00,66.3,28.5,30.29,NW,323,1.0,2.0,24,0.00,,---,0.00,VWS V14.01,2013-04-30 18:48:00,
2013-04-30 14:53:00,66.4,27.5,30.29,NNE,26,3.0,6.0,23,0.00,,---,0.00,VWS V14.01,2013-04-30 18:53:00,
2013-04-30 14:59:00,67.1,25.9,30.29,SSW,212,0.0,5.0,21,0.00,,---,0.00,VWS V14.01,2013-04-30 18:59:00,
2013-04-30 15:03:00,66.4,30.5,30.29,South,183,0.0,2.0,26,0.00,,---,0.00,VWS V14.01,2013-04-30 19:03:00,
2013-04-30 15:09:00,66.4,28.5,30.29,South,184,1.0,5.0,24,0.00,,---,0.00,VWS V14.01,2013-04-30 19:09:00,
2013-04-30 15:14:00,66.3,25.2,30.29,South,178,0.0,0.0,21,0.00,,---,0.00,VWS V14.01,2013-04-30 19:14:00,
2013-04-30 15:20:00,66.4,26.4,30.29,South,177,0.0,4.0,22,0.00,,---,0.00,VWS V14.01,2013-04-30 19:20:00,
2013-04-30 15:26:00,66.3,26.4,30.29,SSE,150,2.0,4.0,22,0.00,,---,0.00,VWS V14.01,2013-04-30 19:26:00,
2013-04-30 15:31:00,66.9,25.7,30.29,South,170,3.0,5.0,21,0.00,,---,0.00,VWS V14.01,2013-04-30 19:31:00,
2013-04-30 15:37:00,67.1,27.0,30.29,South,172,0.0,2.0,22,0.00,,---,0.00,VWS V14.01,2013-04-30 19:37:00,
2013-04-30 15:42:00,67.1,28.1,30.29,SW,218,2.0,2.0,23,0.00,,---,0.00,VWS V14.01,2013-04-30 19:42:00,
2013-04-30 15:47:00,67.3,24.9,30.29,SSE,158,9.0,9.0,20,0.00,,---,0.00,VWS V14.01,2013-04-30 19:47:00,
2013-04-30 15:52:00,66.9,25.7,30.29,South,171,3.0,7.0,21,0.00,,---,0.00,VWS V14.01,2013-04-30 19:52:00,
2013-04-30 15:57:00,66.1,23.9,30.29,SE,129,3.0,3.0,20,0.00,,---,0.00,VWS V14.01,2013-04-30 19:57:00,
2013-04-30 16:02:00,65.8,25.9,30.30,SSW,213,0.0,4.0,22,0.00,,---,0.00,VWS V14.01,2013-04-30 20:02:00,
2013-04-30 16:07:00,66.0,27.2,30.30,South,179,2.0,3.0,23,0.00,,---,0.00,VWS V14.01,2013-04-30 20:07:00,
2013-04-30 16:12:00,66.3,26.4,30.29,South,174,4.0,4.0,22,0.00,,---,0.00,VWS V14.01,2013-04-30 20:12:00,
2013-04-30 16:17:00,66.4,25.3,30.30,South,184,1.0,2.0,21,0.00,,---,0.00,VWS V14.01,2013-04-30 20:17:00,
2013-04-30 16:22:00,66.1,27.2,30.30,SSE,150,2.0,3.0,23,0.00,,---,0.00,VWS V14.01,2013-04-30 20:22:00,
2013-04-30 16:28:00,65.6,24.6,30.29,South,175,0.0,6.0,21,0.00,,---,0.00,VWS V14.01,2013-04-30 20:28:00,
2013-04-30 16:33:00,65.3,23.2,30.29,South,175,1.0,3.0,20,0.00,,---,0.00,VWS V14.01,2013-04-30 20:33:00,
2013-04-30 16:38:00,65.5,25.7,30.29,SW,217,1.0,1.0,22,0.00,,---,0.00,VWS V14.01,2013-04-30 20:38:00,
2013-04-30 16:43:00,65.6,23.5,30.30,SE,142,0.0,9.0,20,0.00,,---,0.00,VWS V14.01,2013-04-30 20:43:00,
2013-04-30 16:48:00,66.0,23.8,30.30,South,177,1.0,1.0,20,0.00,,---,0.00,VWS V14.01,2013-04-30 20:48:00,
2013-04-30 16:53:00,65.8,22.4,30.30,SSE,166,2.0,3.0,19,0.00,,---,0.00,VWS V14.01,2013-04-30 20:53:00,
2013-04-30 16:58:00,66.0,25.0,30.30,SE,142,0.0,3.0,21,0.00,,---,0.00,VWS V14.01,2013-04-30 20:58:00,
2013-04-30 17:03:00,65.5,22.2,30.30,South,173,0.0,0.0,19,0.00,,---,0.00,VWS V14.01,2013-04-30 21:03:00,
2013-04-30 17:08:00,65.2,23.1,30.30,East,80,2.0,6.0,20,0.00,,---,0.00,VWS V14.01,2013-04-30 21:08:00,
2013-04-30 17:13:00,65.5,24.6,30.30,SSW,209,1.0,3.0,21,0.00,,---,0.00,VWS V14.01,2013-04-30 21:13:00,
2013-04-30 17:18:00,65.5,20.9,30.30,SE,144,4.0,7.0,18,0.00,,---,0.00,VWS V14.01,2013-04-30 21:18:00,
2013-04-30 17:24:00,65.0,21.8,30.30,South,174,0.0,3.0,19,0.00,,---,0.00,VWS V14.01,2013-04-30 21:24:00,
2013-04-30 17:29:00,64.8,22.8,30.30,SW,227,0.0,2.0,20,0.00,,---,0.00,VWS V14.01,2013-04-30 21:29:00,
2013-04-30 17:34:00,64.7,22.7,30.30,South,172,1.0,6.0,20,0.00,,---,0.00,VWS V14.01,2013-04-30 21:34:00,
2013-04-30 17:39:00,65.0,21.8,30.30,SSE,150,0.0,0.0,19,0.00,,---,0.00,VWS V14.01,2013-04-30 21:39:00,
2013-04-30 17:45:00,65.0,20.5,30.30,South,173,0.0,3.0,18,0.00,,---,0.00,VWS V14.01,2013-04-30 21:45:00,
2013-04-30 17:50:00,65.0,23.0,30.30,SSW,213,0.0,0.0,20,0.00,,---,0.00,VWS V14.01,2013-04-30 21:50:00,
2013-04-30 17:55:00,64.7,23.9,30.30,South,175,0.0,1.0,21,0.00,,---,0.00,VWS V14.01,2013-04-30 21:55:00,
2013-04-30 18:00:00,64.3,21.2,30.30,SSE,165,2.0,3.0,19,0.00,,---,0.00,VWS V14.01,2013-04-30 22:00:00,
2013-04-30 18:05:00,64.0,22.1,30.31,SSE,153,0.0,3.0,20,0.00,,---,0.00,VWS V14.01,2013-04-30 22:05:00,
2013-04-30 18:11:00,63.7,21.9,30.30,SSW,195,0.0,2.0,20,0.00,,---,0.00,VWS V14.01,2013-04-30 22:11:00,
2013-04-30 18:17:00,63.5,21.7,30.30,SSE,148,4.0,4.0,20,0.00,,---,0.00,VWS V14.01,2013-04-30 22:17:00,
2013-04-30 18:22:00,63.5,24.0,30.30,South,169,0.0,4.0,22,0.00,,---,0.00,VWS V14.01,2013-04-30 22:22:00,
2013-04-30 18:27:00,63.5,22.9,30.30,ESE,121,3.0,5.0,21,0.00,,---,0.00,VWS V14.01,2013-04-30 22:27:00,
2013-04-30 18:32:00,63.5,22.9,30.30,SSE,165,0.0,5.0,21,0.00,,---,0.00,VWS V14.01,2013-04-30 22:32:00,
2013-04-30 18:37:00,63.2,23.8,30.31,South,181,2.0,2.0,22,0.00,,---,0.00,VWS V14.01,2013-04-30 22:37:00,
2013-04-30 18:42:00,63.4,25.0,30.31,SE,134,0.0,1.0,23,0.00,,---,0.00,VWS V14.01,2013-04-30 22:42:00,
2013-04-30 18:48:00,63.1,22.6,30.31,SSE,167,0.0,2.0,21,0.00,,---,0.00,VWS V14.01,2013-04-30 22:48:00,
2013-04-30 18:53:00,62.7,23.3,30.31,East,96,0.0,0.0,22,0.00,,---,0.00,VWS V14.01,2013-04-30 22:53:00,
2013-04-30 18:58:00,62.4,22.0,30.31,SSE,162,0.0,3.0,21,0.00,,---,0.00,VWS V14.01,2013-04-30 22:58:00,
2013-04-30 19:03:00,62.0,22.8,30.31,South,171,1.0,2.0,22,0.00,,---,0.00,VWS V14.01,2013-04-30 23:03:00,
2013-04-30 19:09:00,61.6,23.5,30.31,South,169,1.0,4.0,23,0.00,,---,0.00,VWS V14.01,2013-04-30 23:09:00,
2013-04-30 19:14:00,61.5,22.3,30.31,SSE,154,0.0,2.0,22,0.00,,---,0.00,VWS V14.01,2013-04-30 23:14:00,
2013-04-30 19:19:00,61.0,23.0,30.31,SSE,157,0.0,5.0,23,0.00,,---,0.00,VWS V14.01,2013-04-30 23:19:00,
2013-04-30 19:25:00,60.7,23.7,30.31,SSE,147,0.0,1.0,24,0.00,,---,0.00,VWS V14.01,2013-04-30 23:25:00,
2013-04-30 19:30:00,60.1,22.2,30.31,SE,138,0.0,1.0,23,0.00,,---,0.00,VWS V14.01,2013-04-30 23:30:00,
2013-04-30 19:35:00,59.8,23.9,30.31,ESE,104,0.0,0.0,25,0.00,,---,0.00,VWS V14.01,2013-04-30 23:35:00,
2013-04-30 19:40:00,59.5,23.7,30.31,SSE,165,0.0,0.0,25,0.00,,---,0.00,VWS V14.01,2013-04-30 23:40:00,
2013-04-30 19:45:00,59.0,23.2,30.31,SSE,153,0.0,1.0,25,0.00,,---,0.00,VWS V14.01,2013-04-30 23:45:00,
2013-04-30 19:50:00,58.7,23.0,30.31,SSE,153,0.0,0.0,25,0.00,,---,0.00,VWS V14.01,2013-04-30 23:50:00,
2013-04-30 19:55:00,58.3,22.6,30.31,SE,136,0.0,1.0,25,0.00,,---,0.00,VWS V14.01,2013-04-30 23:55:00,
2013-04-30 20:00:00,57.8,23.2,30.31,SE,136,0.0,0.0,26,0.00,,---,0.00,VWS V14.01,2013-05-01 00:00:00,
2013-04-30 20:05:00,57.3,22.7,30.31,SE,136,0.0,0.0,26,0.00,,---,0.00,VWS V14.01,2013-05-01 00:05:00,
2013-04-30 20:10:00,57.0,23.4,30.31,SE,136,0.0,0.0,27,0.00,,---,0.00,VWS V14.01,2013-05-01 00:10:00,
2013-04-30 20:16:00,56.7,23.1,30.32,SE,136,0.0,0.0,27,0.00,,---,0.00,VWS V14.01,2013-05-01 00:16:00,
2013-04-30 20:22:00,56.3,22.8,30.31,SE,136,0.0,0.0,27,0.00,,---,0.00,VWS V14.01,2013-05-01 00:22:00,
2013-04-30 20:27:00,56.0,22.5,30.32,SE,136,0.0,0.0,27,0.00,,---,0.00,VWS V14.01,2013-05-01 00:27:00,
2013-04-30 20:32:00,55.7,22.3,30.32,SE,136,0.0,0.0,27,0.00,,---,0.00,VWS V14.01,2013-05-01 00:32:00,
2013-04-30 20:37:00,55.4,22.9,30.32,SE,136,0.0,0.0,28,0.00,,---,0.00,VWS V14.01,2013-05-01 00:37:00,
2013-04-30 20:42:00,55.1,22.6,30.32,SE,136,0.0,0.0,28,0.00,,---,0.00,VWS V14.01,2013-05-01 00:42:00,
2013-04-30 20:47:00,54.8,22.3,30.32,SE,136,0.0,0.0,28,0.00,,---,0.00,VWS V14.01,2013-05-01 00:47:00,
2013-04-30 20:52:00,54.5,22.1,30.32,SE,136,0.0,0.0,28,0.00,,---,0.00,VWS V14.01,2013-05-01 00:52:00,
2013-04-30 20:57:00,54.2,22.6,30.32,SE,136,0.0,0.0,29,0.00,,---,0.00,VWS V14.01,2013-05-01 00:57:00,
2013-04-30 21:03:00,53.9,23.2,30.32,SE,136,0.0,0.0,30,0.00,,---,0.00,VWS V14.01,2013-05-01 01:03:00,
2013-04-30 21:09:00,53.6,24.5,30.33,SE,136,0.0,0.0,32,0.00,,---,0.00,VWS V14.01,2013-05-01 01:09:00,
2013-04-30 21:14:00,53.3,25.7,30.33,SE,136,0.0,0.0,34,0.00,,---,0.00,VWS V14.01,2013-05-01 01:14:00,
2013-04-30 21:19:00,53.1,25.5,30.33,SE,136,0.0,0.0,34,0.00,,---,0.00,VWS V14.01,2013-05-01 01:19:00,
2013-04-30 21:24:00,52.8,26.6,30.33,SE,136,0.0,0.0,36,0.00,,---,0.00,VWS V14.01,2013-05-01 01:24:00,
2013-04-30 21:29:00,52.6,26.4,30.33,SE,136,0.0,0.0,36,0.00,,---,0.00,VWS V14.01,2013-05-01 01:29:00,
2013-04-30 21:34:00,52.3,26.2,30.33,SE,136,0.0,0.0,36,0.00,,---,0.00,VWS V14.01,2013-05-01 01:34:00,
2013-04-30 21:39:00,52.2,26.1,30.33,SE,136,0.0,0.0,36,0.00,,---,0.00,VWS V14.01,2013-05-01 01:39:00,
2013-04-30 21:44:00,51.9,26.5,30.33,SE,136,0.0,0.0,37,0.00,,---,0.00,VWS V14.01,2013-05-01 01:44:00,
2013-04-30 21:50:00,51.6,26.8,30.34,SE,136,0.0,0.0,38,0.00,,---,0.00,VWS V14.01,2013-05-01 01:50:00,
2013-04-30 21:55:00,51.3,27.2,30.34,SE,136,0.0,0.0,39,0.00,,---,0.00,VWS V14.01,2013-05-01 01:55:00,
2013-04-30 22:00:00,50.8,26.8,30.34,SE,136,0.0,0.0,39,0.00,,---,0.00,VWS V14.01,2013-05-01 02:00:00,
2013-04-30 22:06:00,50.4,27.6,30.34,SE,136,0.0,0.0,41,0.00,,---,0.00,VWS V14.01,2013-05-01 02:06:00,
2013-04-30 22:11:00,50.2,27.4,30.34,SE,136,0.0,0.0,41,0.00,,---,0.00,VWS V14.01,2013-05-01 02:11:00,
2013-04-30 22:17:00,49.9,27.1,30.34,SE,136,0.0,0.0,41,0.00,,---,0.00,VWS V14.01,2013-05-01 02:17:00,
2013-04-30 22:23:00,49.6,27.5,30.34,SE,136,0.0,0.0,42,0.00,,---,0.00,VWS V14.01,2013-05-01 02:23:00,
2013-04-30 22:28:00,49.5,27.4,30.34,SE,136,0.0,0.0,42,0.00,,---,0.00,VWS V14.01,2013-05-01 02:28:00,
2013-04-30 22:33:00,49.4,27.9,30.34,SE,136,0.0,0.0,43,0.00,,---,0.00,VWS V14.01,2013-05-01 02:33:00,
2013-04-30 22:39:00,49.1,28.1,30.34,SE,136,0.0,0.0,44,0.00,,---,0.00,VWS V14.01,2013-05-01 02:39:00,
2013-04-30 22:44:00,48.9,28.5,30.34,SE,136,0.0,0.0,45,0.00,,---,0.00,VWS V14.01,2013-05-01 02:44:00,
2013-04-30 22:50:00,48.6,28.8,30.34,SE,136,0.0,0.0,46,0.00,,---,0.00,VWS V14.01,2013-05-01 02:50:00,
2013-04-30 22:55:00,48.5,29.2,30.34,SE,136,0.0,0.0,47,0.00,,---,0.00,VWS V14.01,2013-05-01 02:55:00,
2013-04-30 23:01:00,48.2,28.9,30.34,SE,136,0.0,0.0,47,0.00,,---,0.00,VWS V14.01,2013-05-01 03:01:00,
2013-04-30 23:06:00,48.0,28.8,30.34,SE,136,0.0,0.0,47,0.00,,---,0.00,VWS V14.01,2013-05-01 03:06:00,
2013-04-30 23:11:00,47.9,29.2,30.34,SE,136,0.0,0.0,48,0.00,,---,0.00,VWS V14.01,2013-05-01 03:11:00,
2013-04-30 23:16:00,47.6,29.4,30.34,SE,136,0.0,0.0,49,0.00,,---,0.00,VWS V14.01,2013-05-01 03:16:00,
2013-04-30 23:22:00,47.3,29.6,30.34,SE,136,0.0,0.0,50,0.00,,---,0.00,VWS V14.01,2013-05-01 03:22:00,
2013-04-30 23:28:00,47.1,29.4,30.34,SE,136,0.0,0.0,50,0.00,,---,0.00,VWS V14.01,2013-05-01 03:28:00,
2013-04-30 23:33:00,46.8,29.2,30.34,SE,136,0.0,0.0,50,0.00,,---,0.00,VWS V14.01,2013-05-01 03:33:00,
2013-04-30 23:38:00,46.7,29.1,30.34,SE,136,0.0,0.0,50,0.00,,---,0.00,VWS V14.01,2013-05-01 03:38:00,
2013-04-30 23:44:00,46.5,29.4,30.34,SE,136,0.0,0.0,51,0.00,,---,0.00,VWS V14.01,2013-05-01 03:44:00,
2013-04-30 23:49:00,46.4,29.8,30.34,SE,136,0.0,0.0,52,0.00,,---,0.00,VWS V14.01,2013-05-01 03:49:00,
2013-04-30 23:54:00,46.1,29.0,30.33,SE,136,0.0,0.0,51,0.00,,---,0.00,VWS V14.01,2013-05-01 03:54:00,